[[{"header":{"parameterUnit":"m.s-1","parameterCategory":1,"la1":30.2991,"la2":30.254,"lo1":-89.0895,"lo2":-89.0444,"dy":0.0017,"dx":0.0017,"nx":28,"ny":28,"refTime":"2024-02-19T03:00:00:Z","depth":0,"parameterNumber":2,"parameterNumberName":"U-component_of_WINDS"},"data":[0,0,0,0,0,0,0,0,0,0,0,0,0,0,0,0,0,0,0,0,0,0,0,0,0,0,0,0,0,0,0,0,0,0,0,0,0,0,0,0,0,0,0,0,0,0,0,0,0,0,0,0,0,0,0,0,0,0,0.7344,0.7344,0,0.7295,0.7295,0.7294,0.7232,0.7231,0.723,0.7229,0.7178,0.7177,0.7177,0,0,0,0,0,0,0,0,0,0,0,0,0,0.7385,0.7385,0.7344,0.7344,0.7343,0.7295,0.7295,0.7294,0.7233,0.7231,0.723,0.7229,0.7178,0.7177,0.7177,0,0,0,0,0,0,0,0,0,0,0,0,0,0.7355,0.7384,0.7345,0.7307,0.7303,0.7296,0.7295,0.7294,0.7233,0.7231,0.723,0.7228,0.7178,0.7177,0.7177,0.7202,0,0,0.7174,0.7174,0,0,0,0,0,0,0,0,0.7357,0.7353,0.7313,0.7309,0.7305,0.7268,0.729,0.7263,0.7233,0.7259,0.7229,0.7228,0.7209,0.7206,0.72,0.7199,0.7197,0.7174,0.7174,0.7174,0.7174,0,0,0,0,0,0,0,0.7359,0.7355,0.7325,0.7312,0.7308,0.7292,0.7286,0.7285,0.7243,0.7257,0.7252,0.7247,0.7206,0.72,0.7198,0.7196,0.7174,0.7174,0.7173,0.7173,0.7217,0.7218,0,0,0,0,0,0,0.7367,0.7357,0.7326,0.7323,0.7328,0.7293,0.7286,0.7282,0.7243,0.7236,0.7249,0.7245,0.7202,0.7199,0.7196,0.7224,0.7174,0.7173,0.7173,0.7215,0.7217,0.7219,0,0,0,0,0,0,0.7368,0.7364,0.7328,0.7339,0.7333,0.7294,0.7289,0.7281,0.7275,0.7237,0.7229,0.725,0.7201,0.7197,0.7201,0.7222,0.7173,0.7172,0.7213,0.7216,0.7218,0.7281,0,0,0,0,0,0,0.7369,0.7365,0.7374,0.734,0.7333,0.7335,0.729,0.7282,0.7274,0.7269,0.7236,0.7229,0.72,0.7203,0.7201,0.722,0.7172,0.7211,0.7214,0.7217,0.7277,0.7285,0.7292,0,0,0,0,0,0.7371,0.7393,0.7375,0.7372,0.7344,0.7336,0.7332,0.7298,0.7276,0.7285,0.7261,0.723,0.722,0.7204,0.7201,0.722,0.721,0.7213,0.7217,0.7273,0.7283,0.7292,0,0,0,0,0,0,0.743,0.7388,0.7367,0.7379,0.7362,0.7326,0.7336,0.731,0.7298,0.7293,0.7251,0.7244,0.7254,0.7237,0.722,0.7243,0.721,0.7213,0.7254,0.7263,0.7271,0.7275,0.7171,0,0,0,0,0,0.7445,0.7442,0.7405,0.742,0.7412,0.7376,0.7371,0.7347,0.7327,0.7319,0.7295,0.7277,0.7269,0.7265,0.7256,0.7274,0.7267,0.7286,0.7293,0.73,0.7303,0.7313,0.7322,0.723,0.723,0.723,0,0,0.7474,0.7451,0.7452,0.7431,0.7415,0.7414,0.737,0.737,0.7369,0.7319,0.7322,0.7304,0.7281,0.7293,0.7297,0.7279,0.7327,0.7304,0.731,0.731,0.7318,0.7326,0.7334,0.7233,0.7232,0.7232,0,0,0.7528,0.751,0.7521,0.7506,0.7482,0.7458,0.7461,0.7429,0.7416,0.7419,0.7382,0.738,0.7367,0.7353,0.7344,0.7396,0.7367,0.7394,0.7434,0.7444,0.7451,0.7457,0.7477,0.7484,0.7397,0.7397,0.7397,0,0.7568,0.7565,0.7529,0.7533,0.7525,0.7481,0.7492,0.7479,0.7453,0.7449,0.743,0.7415,0.7396,0.7405,0.7418,0.7412,0.7414,0.7397,0.7453,0.7459,0.7464,0.7483,0.749,0.7401,0.74,0.74,0.74,0,0.7617,0.7615,0.7627,0.7605,0.7598,0.7605,0.7571,0.7568,0.7545,0.7523,0.7528,0.7504,0.749,0.749,0.7467,0.7497,0.7487,0.7461,0.7427,0.7477,0.7494,0.75,0.7406,0.7404,0.7403,0.7402,0,0,0.7706,0.7665,0.767,0.766,0.7632,0.763,0.7635,0.7623,0.7623,0.7607,0.7611,0.7603,0.758,0.757,0.7545,0.7554,0.7598,0.7527,0.7526,0.7542,0.7631,0.7651,0.766,0.7579,0.758,0.7581,0.7633,0,0.7755,0.7763,0.7731,0.7747,0.7746,0.7705,0.771,0.7694,0.7674,0.7671,0.7648,0.7644,0.7613,0.7607,0.7614,0.7591,0.7615,0.7587,0.7583,0.7583,0.7591,0.7668,0.7689,0.7739,0.7639,0.764,0.7641,0,0.7813,0.7803,0.7819,0.7791,0.779,0.7795,0.7782,0.7779,0.776,0.7745,0.7735,0.7707,0.7711,0.7679,0.7684,0.7666,0.7662,0.7651,0.7652,0.7651,0.7616,0.767,0.7754,0.7762,0.7651,0.765,0.7649,0,0.7879,0.7868,0.7876,0.7869,0.7837,0.7842,0.7829,0.7808,0.7803,0.7792,0.7789,0.7778,0.7772,0.7765,0.7734,0.7713,0.7744,0.7709,0.7733,0.7734,0.7741,0.7741,0.7827,0.7738,0.7738,0.7738,0.7738,0,0.7938,0.7949,0.7906,0.7911,0.7924,0.7888,0.7901,0.7884,0.7866,0.7868,0.7831,0.7834,0.7793,0.7791,0.7767,0.7777,0.7774,0.7763,0.7757,0.7767,0.7768,0.7764,0.776,0.774,0.7739,0.7739,0.7739,0,0.8012,0.7983,0.799,0.796,0.7953,0.7964,0.7938,0.7942,0.792,0.7923,0.7922,0.7888,0.7885,0.7854,0.7842,0.7827,0.7845,0.7832,0.7852,0.7848,0.7875,0.7873,0.7962,0.7972,0.7876,0.7876,0.7877,0,0.8052,0.8061,0.8032,0.8031,0.802,0.8018,0.8014,0.7979,0.7976,0.7956,0.7963,0.7956,0.7949,0.7945,0.792,0.7912,0.7899,0.793,0.7897,0.7908,0.7901,0.7901,0.7902,0.7937,0.7939,0.794,0.794,0,0.8127,0.8112,0.8107,0.8098,0.8094,0.8085,0.8073,0.8074,0.8036,0.8035,0.8031,0.8026,0.8015,0.801,0.7998,0.7984,0.7957,0.7951,0.7957,0.7967,0.798,0.7975,0.7873,0.7949,0.7948,0.7948,0.7947,0.7947,0.8186,0.8192,0.8174,0.817,0.8158,0.8148,0.8151,0.8131,0.8127,0.8117,0.8097,0.8097,0.8079,0.806,0.8049,0.8049,0.8032,0.8039,0.8041,0.8044,0.805,0.7979,0.8046,0.8046,0.8045,0.8045,0.8045,0,0.8259,0.8246,0.8243,0.8228,0.8226,0.8201,0.8187,0.8187,0.8187,0.8173,0.8168,0.8164,0.8159,0.8135,0.8127,0.8132,0.8119,0.8131,0.8131,0.8128,0.8065,0.8061,0.8142,0.8142,0.8142,0.8142,0.8142,0.8142,0.8298,0.8307,0.8291,0.8295,0.8281,0.8282,0.8276,0.8268,0.8257,0.8255,0.8251,0.8235,0.8217,0.8209,0.8203,0.8196,0.8196,0.8212,0.8201,0.8142,0.8133,0.8124,0.8121,0.8212,0.8212,0.8265,0.8266,0.8266]},{"header":{"parameterUnit":"m.s-1","parameterCategory":1,"la1":30.2991,"la2":30.254,"lo1":-89.0895,"lo2":-89.0444,"dy":0.0017,"dx":0.0017,"nx":28,"ny":28,"refTime":"2024-02-19T03:00:00:Z","depth":0,"parameterNumber":3,"parameterNumberName":"V-component_of_WINDS"},"data":[0,0,0,0,0,0,0,0,0,0,0,0,0,0,0,0,0,0,0,0,0,0,0,0,0,0,0,0,0,0,0,0,0,0,0,0,0,0,0,0,0,0,0,0,0,0,0,0,0,0,0,0,0,0,0,0,0,0,-0.6452,-0.6451,0,-0.6344,-0.6343,-0.6342,-0.6268,-0.6268,-0.6267,-0.6267,-0.6152,-0.6149,-0.6147,0,0,0,0,0,0,0,0,0,0,0,0,0,-0.6591,-0.6589,-0.6452,-0.6451,-0.6449,-0.6344,-0.6343,-0.6341,-0.6268,-0.6268,-0.6267,-0.6267,-0.6153,-0.615,-0.6147,0,0,0,0,0,0,0,0,0,0,0,0,0,-0.6511,-0.6588,-0.6452,-0.64,-0.6395,-0.6345,-0.6343,-0.6341,-0.6269,-0.6268,-0.6267,-0.6266,-0.6154,-0.615,-0.6146,-0.6138,0,0,-0.6134,-0.6133,0,0,0,0,0,0,0,0,-0.6516,-0.6506,-0.6409,-0.6404,-0.6397,-0.6319,-0.6349,-0.6273,-0.6269,-0.6316,-0.6267,-0.6266,-0.6208,-0.62,-0.6181,-0.6132,-0.6127,-0.6134,-0.6132,-0.613,-0.6129,0,0,0,0,0,0,0,-0.6522,-0.6511,-0.6409,-0.6408,-0.6401,-0.6381,-0.6369,-0.6335,-0.6268,-0.6312,-0.6307,-0.6295,-0.6204,-0.6185,-0.6178,-0.6126,-0.6134,-0.6131,-0.6128,-0.6127,-0.6064,-0.6064,0,0,0,0,0,0,-0.6536,-0.6516,-0.6413,-0.6406,-0.6456,-0.6379,-0.6366,-0.6345,-0.6268,-0.6255,-0.6296,-0.6292,-0.6192,-0.6182,-0.6173,-0.6158,-0.613,-0.6127,-0.6124,-0.6063,-0.6064,-0.6065,0,0,0,0,0,0,-0.6539,-0.6527,-0.6417,-0.6459,-0.6444,-0.6378,-0.6355,-0.6343,-0.6323,-0.6256,-0.6243,-0.6288,-0.6191,-0.6179,-0.6147,-0.6153,-0.6125,-0.6121,-0.6062,-0.6063,-0.6064,-0.6127,0,0,0,0,0,0,-0.6543,-0.6529,-0.6526,-0.646,-0.6442,-0.6394,-0.6355,-0.6342,-0.6317,-0.6311,-0.6245,-0.6233,-0.6189,-0.6153,-0.6143,-0.6147,-0.6118,-0.6062,-0.6063,-0.6064,-0.6124,-0.613,-0.6135,0,0,0,0,0,-0.6549,-0.6547,-0.6526,-0.6514,-0.6437,-0.6395,-0.6384,-0.6335,-0.6318,-0.6314,-0.627,-0.6235,-0.6154,-0.6151,-0.6139,-0.6141,-0.6061,-0.6063,-0.6064,-0.6122,-0.6129,-0.6135,0,0,0,0,0,0,-0.6615,-0.6538,-0.6514,-0.6491,-0.645,-0.6383,-0.6376,-0.6344,-0.6306,-0.6302,-0.6241,-0.6226,-0.6201,-0.6168,-0.6166,-0.6128,-0.6103,-0.6102,-0.6151,-0.6157,-0.6163,-0.6171,-0.6115,0,0,0,0,0,-0.6627,-0.66,-0.6534,-0.652,-0.6501,-0.6443,-0.6422,-0.6388,-0.6342,-0.6324,-0.6278,-0.6234,-0.6198,-0.6176,-0.6139,-0.6119,-0.6103,-0.6115,-0.612,-0.6125,-0.6125,-0.6111,-0.6115,-0.6069,-0.6069,-0.6069,0,0,-0.6651,-0.6606,-0.6593,-0.6533,-0.6497,-0.6469,-0.6428,-0.6401,-0.6379,-0.6319,-0.6287,-0.6252,-0.6198,-0.6173,-0.6159,-0.6144,-0.6134,-0.6127,-0.6131,-0.6128,-0.6113,-0.6117,-0.6121,-0.607,-0.607,-0.607,0,0,-0.6682,-0.6645,-0.663,-0.6595,-0.6542,-0.6503,-0.6499,-0.6436,-0.6411,-0.6378,-0.6332,-0.6305,-0.6245,-0.6209,-0.6183,-0.6199,-0.6165,-0.6189,-0.6217,-0.6204,-0.6208,-0.6211,-0.6216,-0.6219,-0.6189,-0.6189,-0.6189,0,-0.6718,-0.6677,-0.6626,-0.6601,-0.6576,-0.6521,-0.6504,-0.6473,-0.641,-0.6393,-0.6378,-0.6301,-0.6261,-0.6226,-0.623,-0.6211,-0.6204,-0.6196,-0.6212,-0.6214,-0.6216,-0.622,-0.6223,-0.6192,-0.6192,-0.6192,-0.6192,0,-0.6724,-0.6696,-0.6689,-0.6632,-0.6605,-0.6585,-0.6529,-0.6508,-0.6476,-0.6438,-0.6405,-0.6355,-0.6307,-0.6296,-0.6264,-0.6256,-0.6249,-0.6224,-0.6197,-0.6224,-0.6227,-0.6229,-0.6197,-0.6196,-0.6195,-0.6194,0,0,-0.6793,-0.6708,-0.6706,-0.6679,-0.6616,-0.6593,-0.6569,-0.6524,-0.6507,-0.6465,-0.6443,-0.6393,-0.637,-0.634,-0.6303,-0.6292,-0.6308,-0.6268,-0.6266,-0.6276,-0.6295,-0.6314,-0.6317,-0.6285,-0.6285,-0.6285,-0.6299,0,-0.6813,-0.677,-0.6723,-0.6696,-0.6668,-0.6616,-0.6595,-0.6554,-0.6518,-0.6488,-0.6447,-0.6413,-0.6385,-0.6366,-0.6353,-0.6309,-0.631,-0.6307,-0.6262,-0.6261,-0.6277,-0.6318,-0.6338,-0.6354,-0.63,-0.63,-0.63,0,-0.6832,-0.6794,-0.6764,-0.6704,-0.6691,-0.6673,-0.6628,-0.66,-0.6552,-0.6526,-0.6493,-0.6454,-0.6425,-0.6402,-0.636,-0.6359,-0.6338,-0.6314,-0.6313,-0.6306,-0.6282,-0.6312,-0.6357,-0.636,-0.6301,-0.6301,-0.6301,0,-0.6884,-0.6826,-0.6801,-0.6779,-0.6708,-0.6697,-0.6667,-0.6617,-0.6593,-0.6553,-0.6536,-0.6492,-0.6468,-0.6435,-0.6384,-0.6372,-0.6348,-0.6321,-0.6324,-0.6326,-0.6321,-0.6322,-0.6363,-0.6309,-0.6309,-0.6309,-0.6309,0,-0.6912,-0.6896,-0.6823,-0.6808,-0.6787,-0.6733,-0.6714,-0.6678,-0.6635,-0.661,-0.6562,-0.654,-0.6475,-0.6444,-0.6404,-0.6376,-0.6365,-0.6342,-0.6332,-0.6347,-0.6349,-0.6331,-0.6329,-0.6309,-0.6309,-0.6309,-0.6309,0,-0.6968,-0.6919,-0.6887,-0.6823,-0.6806,-0.6794,-0.6738,-0.672,-0.6681,-0.6651,-0.664,-0.6579,-0.654,-0.6487,-0.6431,-0.6404,-0.6381,-0.6365,-0.6398,-0.6392,-0.6398,-0.6398,-0.6429,-0.643,-0.6376,-0.6376,-0.6377,0,-0.6988,-0.6975,-0.691,-0.689,-0.6862,-0.6832,-0.6807,-0.6752,-0.6728,-0.6672,-0.666,-0.6618,-0.6582,-0.6522,-0.6471,-0.6429,-0.641,-0.6424,-0.6403,-0.6418,-0.641,-0.6411,-0.6409,-0.6429,-0.643,-0.6431,-0.6431,0,-0.703,-0.7007,-0.6974,-0.6933,-0.6905,-0.6869,-0.6831,-0.6817,-0.6754,-0.6729,-0.669,-0.6662,-0.6606,-0.6564,-0.6515,-0.6481,-0.6445,-0.6438,-0.6437,-0.6451,-0.6471,-0.646,-0.6411,-0.6438,-0.6437,-0.6436,-0.6436,-0.6436,-0.7069,-0.7054,-0.7006,-0.697,-0.6936,-0.6902,-0.6882,-0.6841,-0.6808,-0.6759,-0.6728,-0.669,-0.664,-0.657,-0.6539,-0.6507,-0.6493,-0.6491,-0.649,-0.649,-0.6495,-0.6477,-0.6498,-0.6498,-0.6497,-0.6497,-0.6497,0,-0.7108,-0.7074,-0.7043,-0.6991,-0.6963,-0.6933,-0.6889,-0.6867,-0.6835,-0.6793,-0.6758,-0.6713,-0.6672,-0.6618,-0.6573,-0.6558,-0.6541,-0.6548,-0.6549,-0.6541,-0.6511,-0.6516,-0.6563,-0.6563,-0.6563,-0.6563,-0.6563,-0.6563,-0.7125,-0.7098,-0.7069,-0.7025,-0.6991,-0.6955,-0.6932,-0.6899,-0.6865,-0.6817,-0.6784,-0.6749,-0.6702,-0.6653,-0.6614,-0.6599,-0.6584,-0.6597,-0.6577,-0.655,-0.6544,-0.6538,-0.6543,-0.6595,-0.6595,-0.661,-0.661,-0.6611]}]]